Wenatchee, WA

1:45 AM PDT on April 25, 2017 (GMT -0700)
Pangborn Memorial

Weather History for KEAT - June, 2014

Change the Weather History Date:

Monday, June 23, 2014

  Actual Average Record
Temperature  
Mean Temperature 64 °F 68 °F  
Max Temperature 83 °F 80 °F 105 °F (1992)
Min Temperature 45 °F 56 °F 46 °F (2009)
Degree Days  
Heating Degree Days 1 1  
Month to date heating degree days 158 51  
Since 1 June heating degree days 158 51  
Since 1 July heating degree days 7205 5765  
Cooling Degree Days 0 5  
Month to date cooling degree days 0 72  
Year to date cooling degree days 0 219  
Since 1 June cooling degree days 0 72  
Growing Degree Days 27 (Base 50)    
Moisture  
Dew Point 44 °F    
Average Humidity 33    
Maximum Humidity 52    
Minimum Humidity 14    
Precipitation  
Precipitation 0.00 in 0.02 in 0.07 in (1996)
Month to date precipitation 1.51 0.51  
Year to date precipitation 8.59 4.16  
Snow  
Snow 0.00 in - - ()
Month to date snowfall 0.0  
Since 1 June snowfall 0.0  
Snow Depth 0.00 in    
Sea Level Pressure  
Sea Level Pressure 29.88 in    
Wind  
Wind Speed 8 mph (NW)    
Max Wind Speed 22 mph    
Max Gust Speed 26 mph    
Visibility 10 miles    
Events      
T = Trace of Precipitation, MM = Missing Value Source: NWS Daily Summary

Daily Weather History Graph

Daily Weather History Graph

Search for Another Location

Airport or City:

Trip Planner

Search our weather history database for the weather conditions in past years. The results will help you decide how hot, cold, wet, or windy it might be!

Date:

Astronomy

Jun. 23, 2014 Rise Set
Actual Time 5:04 AM PDT 9:01 PM PDT
Civil Twilight 4:24 AM PDT 9:42 PM PDT
Nautical Twilight 3:28 AM PDT 10:37 PM PDT
Astronomical Twilight 2:00 AM PDT 12:05 AM PDT
Moon 2:45 AM PDT (6/23) 5:38 PM PDT (6/23)
Length of Visible Light 17h 18m
Length of Day
15h 57m
Waning Crescent, 12% of the Moon is Illuminated
Jun 23
Waning Crescent
Jun 27
New
Jul 5
First Quarter
Jul 12
Full
Jul 18
Last Quarter

Hourly Weather History & Observations

Time (PDT) Temp. Dew Point Humidity Pressure Visibility Wind Dir Wind Speed Gust Speed Precip Events Conditions
12:55 AM 72.0 °F 46.0 °F 40% 29.90 in 10.0 mi WNW 4.6 mph - N/A   Clear
1:55 AM 71.1 °F 46.0 °F 41% 29.90 in 10.0 mi WNW 6.9 mph - N/A   Clear
2:55 AM 70.0 °F 46.9 °F 44% 29.91 in 10.0 mi NW 6.9 mph - N/A   Clear
3:55 AM 69.1 °F 46.9 °F 45% 29.90 in 10.0 mi WNW 8.1 mph - N/A   Clear
4:55 AM 66.9 °F 46.9 °F 49% 29.91 in 10.0 mi NNW 6.9 mph - N/A   Clear
5:55 AM 64.9 °F 46.9 °F 52% 29.92 in 10.0 mi WNW 5.8 mph - N/A   Clear
6:55 AM 66.0 °F 46.9 °F 50% 29.94 in 10.0 mi West 10.4 mph - N/A   Clear
7:55 AM 68.0 °F 46.0 °F 45% 29.94 in 10.0 mi WNW 9.2 mph - N/A   Clear
8:55 AM 72.0 °F 45.0 °F 38% 29.94 in 10.0 mi West 5.8 mph - N/A   Clear
9:55 AM 75.0 °F 46.0 °F 36% 29.94 in 10.0 mi Variable 3.5 mph - N/A   Clear
10:55 AM 80.1 °F 46.9 °F 31% 29.92 in 10.0 mi Variable 3.5 mph - N/A   Clear
11:55 AM 84.9 °F 42.1 °F 22% 29.89 in 10.0 mi ESE 6.9 mph - N/A   Clear
12:55 PM 88.0 °F 37.0 °F 16% 29.88 in 10.0 mi ESE 10.4 mph - N/A   Clear
3:55 PM 90.0 °F 34.0 °F 14% 29.82 in 10.0 mi ESE 8.1 mph - N/A   Clear
4:55 PM 89.1 °F 37.0 °F 16% 29.81 in 10.0 mi SE 11.5 mph - N/A   Clear
5:55 PM 88.0 °F 39.9 °F 18% 29.81 in 10.0 mi ESE 6.9 mph - N/A   Clear
6:55 PM 87.1 °F 39.0 °F 18% 29.80 in 10.0 mi East 9.2 mph - N/A   Clear
7:55 PM 84.9 °F 44.1 °F 24% 29.81 in 10.0 mi WNW 17.3 mph 25.3 mph N/A   Partly Cloudy
8:55 PM 81.0 °F 44.1 °F 27% 29.84 in 10.0 mi WNW 17.3 mph 26.5 mph N/A   Clear
9:55 PM 78.1 °F 44.1 °F 30% 29.86 in 10.0 mi NW 20.7 mph - N/A   Clear
10:55 PM 75.9 °F 43.0 °F 31% 29.88 in 10.0 mi WNW 15.0 mph - N/A   Scattered Clouds
11:55 PM 73.9 °F 43.0 °F 33% 29.88 in 10.0 mi NW 21.9 mph - 0.00 in   Overcast